Port Hope, MI

9:46 AM EST on February 06, 2016 (GMT -0500)
Port Hope

Weather History for KP58 - September, 2013

Change the Weather History Date:

Friday, September 6, 2013

  Actual Average Record
Temperature  
Mean Temperature 60 °F -  
Max Temperature 75 °F 74 °F 88 °F (2015)
Min Temperature 46 °F 58 °F 46 °F (2013)
Degree Days  
Heating Degree Days 6    
Growing Degree Days 10 (Base 50)    
Moisture  
Dew Point 46 °F    
Average Humidity 61    
Maximum Humidity 89    
Minimum Humidity 38    
Precipitation  
Precipitation 0.00 in - - ()
Sea Level Pressure  
Sea Level Pressure 30.18 in    
Wind  
Wind Speed 5 mph (SW)    
Max Wind Speed 8 mph    
Max Gust Speed -    
Averages and records for this station are not official NWS values.
T = Trace of Precipitation, MM = Missing Value Source: NWS Daily Summary

Daily Weather History Graph

Daily Weather History Graph

Search for Another Location

Airport or City:

Trip Planner

Search our weather history database for the weather conditions in past years. The results will help you decide how hot, cold, wet, or windy it might be!

Date:

Astronomy

Sep. 06, 2013 Rise Set
Actual Time 7:00 AM EDT 7:57 PM EDT
Civil Twilight 6:30 AM EDT 8:27 PM EDT
Nautical Twilight 5:55 AM EDT 9:02 PM EDT
Astronomical Twilight 5:19 AM EDT 9:38 PM EDT
Moon 8:15 AM EDT 8:15 PM EDT
Length of Visible Light 13h 56m
Length of Day
12h 57m
New Moon, 1% of the Moon is Illuminated
Sep 6
New Moon
Sep 12
First Quarter
Sep 19
Full
Sep 26
Last Quarter
Oct 4
New

Hourly Weather History & Observations

Time (EDT) Temp. Windchill Dew Point Humidity Pressure Visibility Wind Dir Wind Speed Gust Speed Precip Events Conditions
12:51 AM 46.0 °F 43.9 °F 43.0 °F 89% 30.25 in - SW 4.6 mph - N/A   Unknown
1:51 AM 46.9 °F - 42.1 °F 83% 30.26 in - SW 5.8 mph - N/A   Unknown
2:51 AM 46.9 °F - 42.1 °F 83% 30.26 in - SW 5.8 mph - N/A   Unknown
3:51 AM 48.0 °F - 42.1 °F 80% 30.25 in - SW 6.9 mph - N/A   Unknown
4:51 AM 50.0 °F - 42.1 °F 74% 30.25 in - SW 6.9 mph - N/A   Unknown
5:51 AM 50.0 °F - 43.0 °F 77% 30.25 in - SW 4.6 mph - N/A   Unknown
6:51 AM 48.9 °F - 43.0 °F 80% 30.26 in - SW 5.8 mph - N/A   Unknown
7:51 AM 52.0 °F - 44.1 °F 74% 30.26 in - SW 5.8 mph - N/A   Unknown
8:51 AM 55.9 °F - 46.0 °F 69% 30.27 in - Variable 4.6 mph - N/A   Unknown
9:51 AM 57.9 °F - 46.0 °F 65% 30.26 in - SW 6.9 mph - N/A   Unknown
10:51 AM 63.0 °F - 48.0 °F 58% 30.24 in - SSW 6.9 mph - N/A   Unknown
11:51 AM 66.0 °F - 46.0 °F 48% 30.22 in - WSW 8.1 mph - N/A   Unknown
12:51 PM 69.1 °F - 48.0 °F 47% 30.20 in - SW 6.9 mph - N/A   Unknown
1:51 PM 71.1 °F - 46.9 °F 42% 30.18 in - SSW 8.1 mph - N/A   Unknown
2:51 PM 72.0 °F - 46.9 °F 41% 30.15 in - WSW 8.1 mph - N/A   Unknown
3:51 PM 73.0 °F - 46.0 °F 38% 30.14 in - Variable 5.8 mph - N/A   Unknown
4:51 PM 73.0 °F - 46.9 °F 39% 30.11 in - Variable 3.5 mph - N/A   Unknown
5:51 PM 72.0 °F - 48.0 °F 43% 30.11 in - Calm Calm - N/A   Unknown
6:51 PM 70.0 °F - 51.1 °F 51% 30.09 in - Calm Calm - N/A   Unknown
7:51 PM 68.0 °F - 51.1 °F 55% 30.07 in - Calm Calm - N/A   Unknown
8:51 PM 66.0 °F - 51.1 °F 59% 30.06 in - Calm Calm - N/A   Unknown
9:51 PM 64.9 °F - 50.0 °F 58% 30.04 in - Calm Calm - N/A   Unknown
10:51 PM 64.0 °F - 48.9 °F 58% 30.03 in - Variable 5.8 mph - N/A   Unknown
11:51 PM 64.0 °F - 48.0 °F 56% 30.01 in - SW 4.6 mph - N/A   Unknown